This demonstration page uses our WeatherBlox Daily Observations layout. Learn more.

Left ArrowRight Arrow

Hourly Observations for October 7, 2015

Temp ( °F °C ) Dew Point ( °F °C ) Humidity (%) Winds ( mph kmh ) Pressure ( in mb ) Visibility ( mi km ) Precip ( " mm )
12:15 am 00:15 Clear 59 15 57 14 94 94 SSW 8 13 30.00 1016 10 16 N/A
12:35 am 00:35 Clear 59 15 55 13 88 88 N N/A 30.03 1017 10 16 N/A
12:55 am 00:55 Clear 57 14 55 13 94 94 N N/A 30.03 1017 10 16 N/A
1:15 am 01:15 Clear 59 15 55 13 88 88 N N/A 30.03 1017 10 16 N/A
1:35 am 01:35 Clear 55 13 55 13 100 100 N N/A 30.03 1017 10 16 N/A
1:55 am 01:55 Clear 55 13 55 13 100 100 N N/A 30.03 1017 10 16 N/A
2:15 am 02:15 Clear 55 13 55 13 100 100 N N/A 30.03 1017 10 16 N/A
2:35 am 02:35 Clear 55 13 55 13 100 100 N N/A 30.03 1017 10 16 N/A
2:55 am 02:55 Clear 54 12 54 12 100 100 N N/A 30.03 1017 10 16 N/A
3:15 am 03:15 Clear 54 12 54 12 100 100 WNW 3 6 30.03 1017 10 16 N/A
3:35 am 03:35 Clear 54 12 54 12 100 100 NW 3 6 30.03 1017 10 16 N/A
3:55 am 03:55 Partly Cloudy 54 12 54 12 100 100 NW 3 6 30.03 1017 10 16 N/A
4:15 am 04:15 Cloudy 55 13 55 13 100 100 NNW 3 6 30.00 1016 10 16 N/A
4:35 am 04:35 Cloudy 55 13 55 13 100 100 N N/A 30.00 1016 10 16 N/A
4:55 am 04:55 Cloudy 55 13 55 13 100 100 N N/A 30.00 1016 10 16 N/A
5:15 am 05:15 Cloudy 57 14 57 14 100 100 N N/A 30.03 1017 10 16 N/A
5:35 am 05:35 Cloudy 59 15 59 15 100 100 N N/A 30.03 1017 10 16 N/A
5:55 am 05:55 Cloudy 59 15 59 15 100 100 N N/A 30.03 1017 10 16 N/A
6:15 am 06:15 Cloudy 59 15 59 15 100 100 N N/A 30.03 1017 10 16 N/A
6:35 am 06:35 Cloudy 59 15 59 15 100 100 N N/A 30.03 1017 10 16 N/A
6:55 am 06:55 Cloudy 59 15 59 15 100 100 N N/A 30.03 1017 10 16 N/A
7:15 am 07:15 Cloudy 59 15 59 15 100 100 N N/A 30.06 1018 10 16 N/A
7:35 am 07:35 Cloudy 59 15 59 15 100 100 N N/A 30.06 1018 10 16 N/A
7:55 am 07:55 Cloudy 59 15 59 15 100 100 W 3 6 30.06 1018 10 16 N/A
8:15 am 08:15 Cloudy 61 16 61 16 100 100 WSW 3 6 30.06 1018 10 16 N/A
8:35 am 08:35 Cloudy 61 16 61 16 100 100 N N/A 30.06 1018 10 16 N/A
8:55 am 08:55 Cloudy 61 16 61 16 100 100 N N/A 30.06 1018 10 16 N/A
9:15 am 09:15 Cloudy 63 17 61 16 94 94 N N/A 30.06 1018 10 16 N/A
9:35 am 09:35 Cloudy 63 17 61 16 94 94 N N/A 30.09 1019 10 16 N/A
9:55 am 09:55 Cloudy 64 18 63 17 94 94 N N/A 30.09 1019 10 16 N/A
10:15 am 10:15 Cloudy 64 18 63 17 94 94 N N/A 30.09 1019 10 16 N/A
10:35 am 10:35 Cloudy 66 19 63 17 88 88 W 3 6 30.09 1019 10 16 N/A
10:55 am 10:55 Cloudy 68 20 63 17 83 83 WNW 3 6 30.09 1019 10 16 N/A
11:15 am 11:15 Cloudy 70 21 63 17 78 78 WNW 9 15 30.09 1019 10 16 N/A
11:35 am 11:35 Cloudy 72 22 63 17 73 73 WNW 8 13 30.09 1019 10 16 N/A
11:55 am 11:55 Mostly Cloudy 72 22 63 17 73 73 WNW 6 9 30.09 1019 10 16 N/A
12:15 pm 12:15 Partly Cloudy 73 23 61 16 65 65 NNW 9 15 30.09 1019 10 16 N/A
12:35 pm 12:35 Mostly Cloudy 73 23 61 16 65 65 NNW 12 19 30.09 1019 10 16 N/A
12:55 pm 12:55 Cloudy 72 22 61 16 69 69 WNW 6 9 30.09 1019 10 16 N/A
1:15 pm 13:15 Cloudy 73 23 61 16 65 65 NNW 12 19 30.06 1018 10 16 N/A
1:35 pm 13:35 Mostly Cloudy 73 23 61 16 65 65 NNW 12 19 30.06 1018 10 16 N/A
1:55 pm 13:55 Mostly Cloudy 73 23 61 16 65 65 NW 12 19 30.06 1018 10 16 N/A
2:15 pm 14:15 Partly Cloudy 75 24 61 16 61 61 NNW 10 17 30.06 1018 10 16 N/A
2:35 pm 14:35 Partly Cloudy 73 23 61 16 65 65 NW 14 22 30.06 1018 10 16 N/A
2:55 pm 14:55 Partly Cloudy 77 25 59 15 54 54 NW 9 15 30.03 1017 10 16 N/A
3:15 pm 15:15 Partly Cloudy 77 25 61 16 57 57 WNW 8 13 30.03 1017 10 16 N/A
3:35 pm 15:35 Sunny 77 25 61 16 57 57 NW 10 17 30.03 1017 10 16 N/A
3:55 pm 15:55 Sunny 77 25 59 15 54 54 NW 12 19 30.03 1017 10 16 N/A
4:15 pm 16:15 Sunny 77 25 59 15 54 54 NW 9 15 30.03 1017 10 16 N/A
4:35 pm 16:35 Sunny 77 25 59 15 54 54 NNW 13 20 30.03 1017 10 16 N/A
4:55 pm 16:55 Sunny 77 25 61 16 57 57 NW 12 19 30.03 1017 10 16 N/A
5:15 pm 17:15 Sunny 75 24 61 16 61 61 NW 10 17 30.03 1017 10 16 N/A
5:35 pm 17:35 Sunny 75 24 61 16 61 61 NW 8 13 30.03 1017 10 16 N/A
5:55 pm 17:55 Sunny 75 24 61 16 61 61 NW 8 13 30.03 1017 10 16 N/A
6:15 pm 18:15 Sunny 73 23 61 16 65 65 NNW 5 7 30.03 1017 10 16 N/A
6:35 pm 18:35 Sunny 73 23 61 16 65 65 N N/A 30.03 1017 10 16 N/A
6:55 pm 18:55 Clear 70 21 61 16 73 73 N N/A 30.06 1018 10 16 N/A
7:15 pm 19:15 Clear 66 19 63 17 88 88 WNW 7 11 30.06 1018 10 16 N/A
7:35 pm 19:35 Partly Cloudy 66 19 63 17 88 88 N N/A 30.06 1018 10 16 N/A
7:55 pm 19:55 Partly Cloudy 64 18 63 17 94 94 N N/A 30.06 1018 10 16 N/A
8:15 pm 20:15 Partly Cloudy 63 17 63 17 100 100 N N/A 30.06 1018 10 16 N/A
8:35 pm 20:35 Partly Cloudy 63 17 63 17 100 100 N N/A 30.09 1019 10 16 N/A
8:55 pm 20:55 Mostly Cloudy 64 18 63 17 94 94 NNW 3 6 30.09 1019 10 16 N/A
9:15 pm 21:15 Cloudy 63 17 63 17 100 100 N N/A 30.09 1019 10 16 N/A
9:35 pm 21:35 Cloudy 63 17 63 17 100 100 W 3 6 30.09 1019 10 16 N/A
9:55 pm 21:55 Mostly Cloudy 63 17 61 16 94 94 N N/A 30.09 1019 10 16 N/A
10:15 pm 22:15 Partly Cloudy 63 17 61 16 94 94 WNW 3 6 30.09 1019 10 16 N/A
10:35 pm 22:35 Mostly Cloudy 63 17 61 16 94 94 N N/A 30.09 1019 10 16 N/A
10:55 pm 22:55 Mostly Cloudy 63 17 61 16 94 94 N N/A 30.09 1019 10 16 N/A
11:15 pm 23:15 Partly Cloudy 61 16 59 15 94 94 WNW 5 7 30.12 1020 10 16 N/A
11:35 pm 23:35 Clear 63 17 61 16 94 94 N N/A 30.12 1020 10 16 N/A
11:55 pm 23:55 Clear 63 17 59 15 88 88 NNW 3 6 30.12 1020 10 16 N/A

Powered by AerisWeather